Weather History for Formosa, Argentina

Change the Weather History Date:

Wednesday, November 21, 2012

  Actual Average Record
Temperature  
Mean Temperature 84 °F -  
Max Temperature 101 °F 90 °F 101 °F (2012)
Min Temperature 68 °F 68 °F 57 °F (2006)
Cooling Degree Days 20    
Growing Degree Days 34 (Base 50)    
Moisture  
Dew Point 64 °F    
Average Humidity 53    
Maximum Humidity 94    
Minimum Humidity 19    
Precipitation  
Precipitation 0.00 in 0.20 in - ()
Sea Level Pressure  
Sea Level Pressure 29.77 in    
Wind  
Wind Speed 5 mph ()    
Max Wind Speed 14 mph    
Max Gust Speed -    
Visibility 8.3 miles    
Events      
Averages and records for this station are not official NWS values.
T = Trace of Precipitation, MM = Missing Value Source: Averaged Metar Reports

Daily Weather History Graph

Daily Weather History Graph

Search for Another Location

Airport:

Trip Planner

Search our weather history database for the weather conditions in past years. The results will help you decide how hot, cold, wet, or windy it might be!

Date:

Astronomy

Nov. 21, 2012 Rise Set
Actual Time 5:53 AM ART 7:24 PM ART
Civil Twilight 5:28 AM ART 7:49 PM ART
Nautical Twilight 4:57 AM ART 8:20 PM ART
Astronomical Twilight 4:26 AM ART 8:51 PM ART
Moon 1:34 PM ART (11/21) 1:23 AM ART (11/21)
Length of Visible Light 14h 21m
Length of Day
13h 31m
First Quarter, 60% of the Moon is Illuminated
Nov 21
First Quarter
Nov 28
Full
Dec 6
Last Quarter
Dec 13
New
Dec 20
First Quarter

Hourly Weather History & Observations

Time (ART) Temp. Heat Index Dew Point Humidity Pressure Visibility Wind Dir Wind Speed Gust Speed Precip Events Conditions
12:00 AM 75.2 °F - 68.0 °F 78% 29.83 in - East 5.8 mph - N/A   Clear
1:00 AM 75.2 °F - 68.0 °F 78% 29.80 in - ESE 3.5 mph - N/A   Clear
2:00 AM 73.4 °F - 68.0 °F 83% 29.80 in - East 4.6 mph - N/A   Clear
3:00 AM 72 °F - 67 °F 79% 29.77 in 12 mi ENE 2.3 mph - -  
3:00 AM 71.6 °F - 66.2 °F 83% 29.77 in - ENE 2.3 mph - N/A   Clear
4:00 AM 71.6 °F - 68.0 °F 88% 29.80 in - SE 2.3 mph - N/A   Clear
5:00 AM 68.0 °F - 66.2 °F 94% 29.80 in - East 4.6 mph - N/A   Clear
6:00 AM 69.8 °F - 66.2 °F 88% 29.80 in - East 2.3 mph - N/A   Clear
7:00 AM 73.4 °F - 66.2 °F 78% 29.83 in - NE 2.3 mph - N/A   Clear
8:00 AM 80.6 °F 82.7 °F 66.2 °F 61% 29.83 in - East 6.9 mph - N/A   Clear
9:00 AM 85 °F - 65 °F 42% 29.84 in 12 mi East 5.8 mph - -   Clear
9:00 AM 86.0 °F 87.3 °F 64.4 °F 48% 29.86 in - East 5.8 mph - N/A   Clear
10:00 AM 89.6 °F 90.1 °F 62.6 °F 40% 29.86 in - East 10.4 mph - N/A   Clear
11:00 AM 93.2 °F 93.3 °F 60.8 °F 34% 29.83 in - East 5.8 mph - N/A   Clear
12:00 PM 95.0 °F 95.2 °F 60.8 °F 32% 29.80 in 6.2 mi NE 4.6 mph - N/A   Partly Cloudy
1:00 PM 96.8 °F 97.1 °F 60.8 °F 30% 29.77 in 6.2 mi SE 9.2 mph - N/A   Partly Cloudy
2:00 PM 96.8 °F 98.0 °F 62.6 °F 32% 29.74 in 6.2 mi ENE 11.5 mph - N/A   Scattered Clouds
3:00 PM 100 °F - 61 °F 19% 29.71 in 12 mi East 11.5 mph - -   Partly Cloudy
3:00 PM 100.4 °F 101.3 °F 60.8 °F 27% 29.74 in 6.2 mi East 11.5 mph - N/A   Scattered Clouds
4:00 PM 98.6 °F 99.4 °F 60.8 °F 29% 29.71 in 6.2 mi ENE 12.7 mph - N/A   Scattered Clouds
5:00 PM 98.6 °F 99.4 °F 60.8 °F 29% 29.68 in 6.2 mi ENE 9.2 mph - N/A   Scattered Clouds
6:00 PM 96.8 °F 97.1 °F 60.8 °F 30% 29.68 in 6.2 mi ENE 11.5 mph - N/A   Partly Cloudy
7:00 PM 93.2 °F 94.1 °F 62.6 °F 36% 29.68 in - ENE 13.8 mph - N/A   Clear
8:00 PM 89.6 °F 91.1 °F 64.4 °F 43% 29.68 in - ENE 6.9 mph - N/A   Clear
9:00 PM 85 °F - 65 °F 42% 29.69 in 12 mi NE 5.8 mph - -  
9:00 PM 86.0 °F 87.3 °F 64.4 °F 48% 29.71 in - NE 5.8 mph - N/A   Clear
10:00 PM 84.2 °F 87.3 °F 68.0 °F 58% 29.71 in - East 8.1 mph - N/A   Clear
11:00 PM 84.2 °F 86.6 °F 66.2 °F 55% 29.71 in - ENE 8.1 mph - N/A   Clear